Year,Month,Day,Hour,Minute,Value (Times are PST for temperature in C)
2012,08,17,00,00,21.10
2012,08,17,00,01,21.10
2012,08,17,00,02,21.00
2012,08,17,00,03,21.00
2012,08,17,00,04,21.00
2012,08,17,00,05,21.00
2012,08,17,00,06,21.00
2012,08,17,00,07,20.90
2012,08,17,00,08,20.90
2012,08,17,00,09,20.90
2012,08,17,00,10,20.90
2012,08,17,00,11,20.90
2012,08,17,00,12,20.80
2012,08,17,00,13,20.80
2012,08,17,00,14,20.80
2012,08,17,00,15,20.80
2012,08,17,00,16,20.80
2012,08,17,00,17,20.80
2012,08,17,00,18,20.80
2012,08,17,00,19,20.80
2012,08,17,00,20,20.80
2012,08,17,00,21,20.80
2012,08,17,00,22,20.80
2012,08,17,00,23,20.80
2012,08,17,00,24,20.90
2012,08,17,00,25,20.90
2012,08,17,00,26,20.90
2012,08,17,00,27,21.00
2012,08,17,00,28,21.00
2012,08,17,00,29,21.00
2012,08,17,00,30,21.10
2012,08,17,00,31,21.10
2012,08,17,00,32,21.10
2012,08,17,00,33,21.00
2012,08,17,00,34,21.00
2012,08,17,00,35,21.00
2012,08,17,00,36,21.00
2012,08,17,00,37,20.90
2012,08,17,00,38,20.90
2012,08,17,00,39,20.90
2012,08,17,00,40,20.90
2012,08,17,00,41,20.90
2012,08,17,00,42,20.90
2012,08,17,00,43,20.90
2012,08,17,00,44,20.80
2012,08,17,00,45,20.80
2012,08,17,00,46,20.80
2012,08,17,00,47,20.80
2012,08,17,00,48,20.80
2012,08,17,00,49,20.80
2012,08,17,00,50,20.80
2012,08,17,00,51,20.70
2012,08,17,00,52,20.70
2012,08,17,00,53,20.70
2012,08,17,00,54,20.70
2012,08,17,00,55,20.70
2012,08,17,00,56,20.60
2012,08,17,00,57,20.60
2012,08,17,00,58,20.60
2012,08,17,00,59,20.50
2012,08,17,01,00,20.50
2012,08,17,01,01,20.50
2012,08,17,01,02,20.40
2012,08,17,01,03,20.40
2012,08,17,01,04,20.40
2012,08,17,01,05,20.30
2012,08,17,01,06,20.30
2012,08,17,01,07,20.30
2012,08,17,01,08,20.30
2012,08,17,01,09,20.20
2012,08,17,01,10,20.20
2012,08,17,01,11,20.10
2012,08,17,01,12,20.10
2012,08,17,01,13,20.00
2012,08,17,01,14,20.00
2012,08,17,01,15,20.00
2012,08,17,01,16,19.90
2012,08,17,01,17,19.90
2012,08,17,01,18,19.80
2012,08,17,01,19,19.80
2012,08,17,01,20,19.80
2012,08,17,01,21,19.70
2012,08,17,01,22,19.60
2012,08,17,01,23,19.60
2012,08,17,01,24,19.50
2012,08,17,01,25,19.40
2012,08,17,01,26,19.30
2012,08,17,01,27,19.20
2012,08,17,01,28,19.20
2012,08,17,01,29,19.10
2012,08,17,01,30,19.10
2012,08,17,01,31,19.00
2012,08,17,01,32,19.00
2012,08,17,01,33,18.90
2012,08,17,01,34,18.80
2012,08,17,01,35,18.80
2012,08,17,01,36,18.80
2012,08,17,01,37,18.80
2012,08,17,01,38,18.70
2012,08,17,01,39,18.70
2012,08,17,01,40,18.70
2012,08,17,01,41,18.70
2012,08,17,01,42,18.70
2012,08,17,01,43,18.70
2012,08,17,01,44,18.70
2012,08,17,01,45,18.70
2012,08,17,01,46,18.60
2012,08,17,01,47,18.60
2012,08,17,01,48,18.60
2012,08,17,01,49,18.60
2012,08,17,01,50,18.60
2012,08,17,01,51,18.60
2012,08,17,01,52,18.60
2012,08,17,01,53,18.60
2012,08,17,01,54,18.50
2012,08,17,01,55,18.50
2012,08,17,01,56,18.50
2012,08,17,01,57,18.50
2012,08,17,01,58,18.50
2012,08,17,01,59,18.50
2012,08,17,02,00,18.50
2012,08,17,02,01,18.40
2012,08,17,02,02,18.40
2012,08,17,02,03,18.40
2012,08,17,02,04,18.40
2012,08,17,02,05,18.40
2012,08,17,02,06,18.40
2012,08,17,02,07,18.40
2012,08,17,02,08,18.40
2012,08,17,02,09,18.40
2012,08,17,02,10,18.40
2012,08,17,02,11,18.40
2012,08,17,02,12,18.40
2012,08,17,02,13,18.50
2012,08,17,02,14,18.50
2012,08,17,02,15,18.60
2012,08,17,02,16,18.60
2012,08,17,02,17,18.60
2012,08,17,02,18,18.60
2012,08,17,02,19,18.70
2012,08,17,02,20,18.60
2012,08,17,02,21,18.60
2012,08,17,02,22,18.60
2012,08,17,02,23,18.60
2012,08,17,02,24,18.60
2012,08,17,02,25,18.60
2012,08,17,02,26,18.60
2012,08,17,02,27,18.60
2012,08,17,02,28,18.50
2012,08,17,02,29,18.50
2012,08,17,02,30,18.50
2012,08,17,02,31,18.50
2012,08,17,02,32,18.40
2012,08,17,02,33,18.40
2012,08,17,02,34,18.30
2012,08,17,02,35,18.30
2012,08,17,02,36,18.20
2012,08,17,02,37,18.10
2012,08,17,02,38,18.10
2012,08,17,02,39,18.00
2012,08,17,02,40,17.90
2012,08,17,02,41,17.90
2012,08,17,02,42,17.80
2012,08,17,02,43,17.80
2012,08,17,02,44,17.80
2012,08,17,02,45,17.70
2012,08,17,02,46,17.70
2012,08,17,02,47,17.70
2012,08,17,02,48,17.70
2012,08,17,02,49,17.70
2012,08,17,02,50,17.70
2012,08,17,02,51,17.60
2012,08,17,02,52,17.60
2012,08,17,02,53,17.60
2012,08,17,02,54,17.60
2012,08,17,02,55,17.60
2012,08,17,02,56,17.60
2012,08,17,02,57,17.60
2012,08,17,02,58,17.60
2012,08,17,02,59,17.60
2012,08,17,03,00,17.60
2012,08,17,03,01,17.60
2012,08,17,03,02,17.50
2012,08,17,03,03,17.50
2012,08,17,03,04,17.50
2012,08,17,03,05,17.50
2012,08,17,03,06,17.40
2012,08,17,03,07,17.40
2012,08,17,03,08,17.40
2012,08,17,03,09,17.40
2012,08,17,03,10,17.40
2012,08,17,03,11,17.30
2012,08,17,03,12,17.30
2012,08,17,03,13,17.30
2012,08,17,03,14,17.30
2012,08,17,03,15,17.20
2012,08,17,03,16,17.20
2012,08,17,03,17,17.20
2012,08,17,03,18,17.20
2012,08,17,03,19,17.20
2012,08,17,03,20,17.10
2012,08,17,03,21,17.00
2012,08,17,03,22,17.00
2012,08,17,03,23,16.90
2012,08,17,03,24,16.90
2012,08,17,03,25,16.90
2012,08,17,03,26,16.80
2012,08,17,03,27,16.80
2012,08,17,03,28,16.80
2012,08,17,03,29,16.80
2012,08,17,03,30,16.70
2012,08,17,03,31,16.70
2012,08,17,03,32,16.70
2012,08,17,03,33,16.70
2012,08,17,03,34,16.60
2012,08,17,03,35,16.60
2012,08,17,03,36,16.60
2012,08,17,03,37,16.60
2012,08,17,03,38,16.50
2012,08,17,03,39,16.50
2012,08,17,03,40,16.50
2012,08,17,03,41,16.50
2012,08,17,03,42,16.40
2012,08,17,03,43,16.40
2012,08,17,03,44,16.40
2012,08,17,03,45,16.40
2012,08,17,03,46,16.40
2012,08,17,03,47,16.40
2012,08,17,03,48,16.40
2012,08,17,03,49,16.30
2012,08,17,03,50,16.30
2012,08,17,03,51,16.30
2012,08,17,03,52,16.30
2012,08,17,03,53,16.30
2012,08,17,03,54,16.30
2012,08,17,03,55,16.30
2012,08,17,03,56,16.30
2012,08,17,03,57,16.30
2012,08,17,03,58,16.30
2012,08,17,03,59,16.30
2012,08,17,04,00,16.30
2012,08,17,04,01,16.30
2012,08,17,04,02,16.30
2012,08,17,04,03,16.30
2012,08,17,04,04,16.30
2012,08,17,04,05,16.30
2012,08,17,04,06,16.40
2012,08,17,04,07,16.40
2012,08,17,04,08,16.40
2012,08,17,04,09,16.40
2012,08,17,04,10,16.50
2012,08,17,04,11,16.50
2012,08,17,04,12,16.50
2012,08,17,04,13,16.60
2012,08,17,04,14,16.60
2012,08,17,04,15,16.60
2012,08,17,04,16,16.60
2012,08,17,04,17,16.70
2012,08,17,04,18,16.70
2012,08,17,04,19,16.70
2012,08,17,04,20,16.70
2012,08,17,04,21,16.80
2012,08,17,04,22,16.80
2012,08,17,04,23,16.80
2012,08,17,04,24,16.80
2012,08,17,04,25,16.80
2012,08,17,04,26,16.80
2012,08,17,04,27,16.80
2012,08,17,04,28,16.80
2012,08,17,04,29,16.80
2012,08,17,04,30,16.80
2012,08,17,04,31,16.80
2012,08,17,04,32,16.80
2012,08,17,04,33,16.80
2012,08,17,04,34,16.80
2012,08,17,04,35,16.80
2012,08,17,04,36,16.80
2012,08,17,04,37,16.80
2012,08,17,04,38,16.80
2012,08,17,04,39,16.80
2012,08,17,04,40,16.80
2012,08,17,04,41,16.80
2012,08,17,04,42,16.80
2012,08,17,04,43,16.80
2012,08,17,04,44,16.80
2012,08,17,04,45,16.80
2012,08,17,04,46,16.80
2012,08,17,04,47,16.80
2012,08,17,04,48,16.80
2012,08,17,04,49,16.80
2012,08,17,04,50,16.80
2012,08,17,04,51,16.80
2012,08,17,04,52,16.80
2012,08,17,04,53,16.80
2012,08,17,04,54,16.80
2012,08,17,04,55,16.70
2012,08,17,04,56,16.70
2012,08,17,04,57,16.70
2012,08,17,04,58,16.70
2012,08,17,04,59,16.70
2012,08,17,05,00,16.70
2012,08,17,05,01,16.70
2012,08,17,05,02,16.70
2012,08,17,05,03,16.70
2012,08,17,05,04,16.70
2012,08,17,05,05,16.70
2012,08,17,05,06,16.70
2012,08,17,05,07,16.80
2012,08,17,05,08,16.80
2012,08,17,05,09,16.80
2012,08,17,05,10,16.80
2012,08,17,05,11,16.80
2012,08,17,05,12,16.90
2012,08,17,05,13,16.90
2012,08,17,05,14,17.00
2012,08,17,05,15,17.00
2012,08,17,05,16,17.10
2012,08,17,05,17,17.10
2012,08,17,05,18,17.10
2012,08,17,05,19,17.20
2012,08,17,05,20,17.20
2012,08,17,05,21,17.20
2012,08,17,05,22,17.20
2012,08,17,05,23,17.20
2012,08,17,05,24,17.20
2012,08,17,05,25,17.20
2012,08,17,05,26,17.20
2012,08,17,05,27,17.10
2012,08,17,05,28,17.10
2012,08,17,05,29,17.10
2012,08,17,05,30,17.10
2012,08,17,05,31,17.00
2012,08,17,05,32,17.00
2012,08,17,05,33,17.00
2012,08,17,05,34,17.00
2012,08,17,05,35,16.90
2012,08,17,05,36,16.90
2012,08,17,05,37,16.90
2012,08,17,05,38,16.90
2012,08,17,05,39,16.90
2012,08,17,05,40,16.90
2012,08,17,05,41,16.90
2012,08,17,05,42,16.90
2012,08,17,05,43,16.90
2012,08,17,05,44,16.90
2012,08,17,05,45,16.90
2012,08,17,05,46,16.80
2012,08,17,05,47,16.80
2012,08,17,05,48,16.80
2012,08,17,05,49,16.80
2012,08,17,05,50,16.70
2012,08,17,05,51,16.70
2012,08,17,05,52,16.70
2012,08,17,05,53,16.70
2012,08,17,05,54,16.60
2012,08,17,05,55,16.60
2012,08,17,05,56,16.50
2012,08,17,05,57,16.40
2012,08,17,05,58,16.40
2012,08,17,05,59,16.30
2012,08,17,06,00,16.20
2012,08,17,06,01,16.10
2012,08,17,06,02,16.00
2012,08,17,06,03,15.90
2012,08,17,06,04,15.80
2012,08,17,06,05,15.70
2012,08,17,06,06,15.70
2012,08,17,06,07,15.60
2012,08,17,06,08,15.50
2012,08,17,06,09,15.50
2012,08,17,06,10,15.40
2012,08,17,06,11,15.40
2012,08,17,06,12,15.40
2012,08,17,06,13,15.30
2012,08,17,06,14,15.30
2012,08,17,06,15,15.30
2012,08,17,06,16,15.30
2012,08,17,06,17,15.30
2012,08,17,06,18,15.30
2012,08,17,06,19,15.30
2012,08,17,06,20,15.30
2012,08,17,06,21,15.30
2012,08,17,06,22,15.30
2012,08,17,06,23,15.30
2012,08,17,06,24,15.30
2012,08,17,06,25,15.30
2012,08,17,06,26,15.30
2012,08,17,06,27,15.30
2012,08,17,06,28,15.40
2012,08,17,06,29,15.40
2012,08,17,06,30,15.40
2012,08,17,06,31,15.40
2012,08,17,06,32,15.40
2012,08,17,06,33,15.50
2012,08,17,06,34,15.50
2012,08,17,06,35,15.60
2012,08,17,06,36,15.60
2012,08,17,06,37,15.60
2012,08,17,06,38,15.60
2012,08,17,06,39,15.70
2012,08,17,06,40,15.70
2012,08,17,06,41,15.70
2012,08,17,06,42,15.70
2012,08,17,06,43,15.70
2012,08,17,06,44,15.80
2012,08,17,06,45,15.80
2012,08,17,06,46,15.90
2012,08,17,06,47,16.00
2012,08,17,06,48,16.10
2012,08,17,06,49,16.10
2012,08,17,06,50,16.20
2012,08,17,06,51,16.20
2012,08,17,06,52,16.30
2012,08,17,06,53,16.30
2012,08,17,06,54,16.30
2012,08,17,06,55,16.40
2012,08,17,06,56,16.40
2012,08,17,06,57,16.50
2012,08,17,06,58,16.50
2012,08,17,06,59,16.60
2012,08,17,07,00,16.60
2012,08,17,07,01,16.70
2012,08,17,07,02,16.80
2012,08,17,07,03,16.80
2012,08,17,07,04,16.90
2012,08,17,07,05,17.00
2012,08,17,07,06,17.00
2012,08,17,07,07,17.10
2012,08,17,07,08,17.20
2012,08,17,07,09,17.30
2012,08,17,07,10,17.40
2012,08,17,07,11,17.40
2012,08,17,07,12,17.50
2012,08,17,07,13,17.60
2012,08,17,07,14,17.60
2012,08,17,07,15,17.60
2012,08,17,07,16,17.70
2012,08,17,07,17,17.70
2012,08,17,07,18,17.70
2012,08,17,07,19,17.70
2012,08,17,07,20,17.70
2012,08,17,07,21,17.80
2012,08,17,07,22,17.80
2012,08,17,07,23,17.80
2012,08,17,07,24,17.80
2012,08,17,07,25,17.80
2012,08,17,07,26,17.80
2012,08,17,07,27,17.80
2012,08,17,07,28,17.90
2012,08,17,07,29,17.90
2012,08,17,07,30,18.00
2012,08,17,07,31,18.10
2012,08,17,07,32,18.20
2012,08,17,07,33,18.20
2012,08,17,07,34,18.30
2012,08,17,07,35,18.30
2012,08,17,07,36,18.40
2012,08,17,07,37,18.40
2012,08,17,07,38,18.40
2012,08,17,07,39,18.50
2012,08,17,07,40,18.50
2012,08,17,07,41,18.60
2012,08,17,07,42,18.50
2012,08,17,07,43,18.60
2012,08,17,07,44,18.60
2012,08,17,07,45,18.60
2012,08,17,07,46,18.60
2012,08,17,07,47,18.60
2012,08,17,07,48,18.60
2012,08,17,07,49,18.70
2012,08,17,07,50,18.70
2012,08,17,07,51,18.80
2012,08,17,07,52,18.80
2012,08,17,07,53,18.80
2012,08,17,07,54,18.80
2012,08,17,07,55,18.70
2012,08,17,07,56,18.70
2012,08,17,07,57,18.70
2012,08,17,07,58,18.80
2012,08,17,07,59,18.80
2012,08,17,08,00,18.80
2012,08,17,08,01,18.80
2012,08,17,08,02,18.90
2012,08,17,08,03,18.90
2012,08,17,08,04,19.00
2012,08,17,08,05,19.00
2012,08,17,08,06,19.00
2012,08,17,08,07,19.10
2012,08,17,08,08,19.20
2012,08,17,08,09,19.20
2012,08,17,08,10,19.20
2012,08,17,08,11,19.20
2012,08,17,08,12,19.30
2012,08,17,08,13,19.30
2012,08,17,08,14,19.30
2012,08,17,08,15,19.40
2012,08,17,08,16,19.40
2012,08,17,08,17,19.50
2012,08,17,08,18,19.60
2012,08,17,08,19,19.70
2012,08,17,08,20,19.80
2012,08,17,08,21,19.80
2012,08,17,08,22,19.90
2012,08,17,08,23,20.00
2012,08,17,08,24,20.00
2012,08,17,08,25,20.00
2012,08,17,08,26,20.00
2012,08,17,08,27,20.00
2012,08,17,08,28,20.00
2012,08,17,08,29,20.00
2012,08,17,08,30,20.00
2012,08,17,08,31,19.90
2012,08,17,08,32,19.80
2012,08,17,08,33,19.80
2012,08,17,08,34,19.70
2012,08,17,08,35,19.60
2012,08,17,08,36,19.50
2012,08,17,08,37,19.30
2012,08,17,08,38,19.20
2012,08,17,08,39,19.20
2012,08,17,08,40,19.10
2012,08,17,08,41,19.00
2012,08,17,08,42,19.00
2012,08,17,08,43,18.90
2012,08,17,08,44,18.80
2012,08,17,08,45,18.70
2012,08,17,08,46,18.60
2012,08,17,08,47,18.50
2012,08,17,08,48,18.40
2012,08,17,08,49,18.30
2012,08,17,08,50,18.30
2012,08,17,08,51,18.20
2012,08,17,08,52,18.20
2012,08,17,08,53,18.20
2012,08,17,08,54,18.10
2012,08,17,08,55,18.10
2012,08,17,08,56,18.00
2012,08,17,08,57,17.90
2012,08,17,08,58,17.90
2012,08,17,08,59,17.90
2012,08,17,09,00,17.80
2012,08,17,09,01,17.80
2012,08,17,09,02,17.70
2012,08,17,09,03,17.50
2012,08,17,09,04,17.30
2012,08,17,09,05,17.10
2012,08,17,09,06,17.00
2012,08,17,09,07,16.80
2012,08,17,09,08,16.70
2012,08,17,09,09,16.60
2012,08,17,09,10,16.50
2012,08,17,09,11,16.40
2012,08,17,09,12,16.30
2012,08,17,09,13,16.30
2012,08,17,09,14,16.30
2012,08,17,09,15,16.20
2012,08,17,09,16,16.20
2012,08,17,09,17,16.30
2012,08,17,09,18,16.30
2012,08,17,09,19,16.30
2012,08,17,09,20,16.30
2012,08,17,09,21,16.40
2012,08,17,09,22,16.50
2012,08,17,09,23,16.60
2012,08,17,09,24,16.60
2012,08,17,09,25,16.60
2012,08,17,09,26,16.70
2012,08,17,09,27,16.70
2012,08,17,09,28,16.80
2012,08,17,09,29,16.80
2012,08,17,09,30,16.90
2012,08,17,09,31,17.00
2012,08,17,09,32,17.10
2012,08,17,09,33,17.10
2012,08,17,09,34,17.20
2012,08,17,09,35,17.20
2012,08,17,09,36,17.30
2012,08,17,09,37,17.40
2012,08,17,09,38,17.50
2012,08,17,09,39,17.60
2012,08,17,09,40,17.70
2012,08,17,09,41,17.80
2012,08,17,09,42,18.00
2012,08,17,09,43,18.10
2012,08,17,09,44,18.20
2012,08,17,09,45,18.30
2012,08,17,09,46,18.30
2012,08,17,09,47,18.40
2012,08,17,09,48,18.50
2012,08,17,09,49,18.60
2012,08,17,09,50,18.60
2012,08,17,09,51,18.70
2012,08,17,09,52,18.70
2012,08,17,09,53,18.70
2012,08,17,09,54,18.70
2012,08,17,09,55,18.70
2012,08,17,09,56,18.70
2012,08,17,09,57,18.60
2012,08,17,09,58,18.50
2012,08,17,09,59,18.50
2012,08,17,10,00,18.50
2012,08,17,10,01,18.50
2012,08,17,10,02,18.60
2012,08,17,10,03,18.50
2012,08,17,10,04,18.50
2012,08,17,10,05,18.40
2012,08,17,10,06,18.40
2012,08,17,10,07,18.40
2012,08,17,10,08,18.40
2012,08,17,10,09,18.40
2012,08,17,10,10,18.40
2012,08,17,10,11,18.50
2012,08,17,10,12,18.50
2012,08,17,10,13,18.50
2012,08,17,10,14,18.60
2012,08,17,10,15,18.60
2012,08,17,10,16,18.60
2012,08,17,10,17,18.60
2012,08,17,10,18,18.60
2012,08,17,10,19,18.70
2012,08,17,10,20,18.80
2012,08,17,10,21,18.80
2012,08,17,10,22,19.00
2012,08,17,10,23,19.10
2012,08,17,10,24,19.20
2012,08,17,10,25,19.30
2012,08,17,10,26,19.40
2012,08,17,10,27,19.50
2012,08,17,10,28,19.70
2012,08,17,10,29,19.70
2012,08,17,10,30,19.70
2012,08,17,10,31,19.70
2012,08,17,10,32,19.70
2012,08,17,10,33,19.70
2012,08,17,10,34,19.70
2012,08,17,10,35,19.60
2012,08,17,10,36,19.60
2012,08,17,10,37,19.60
2012,08,17,10,38,19.60
2012,08,17,10,39,19.50
2012,08,17,10,40,19.50
2012,08,17,10,41,19.50
2012,08,17,10,42,19.40
2012,08,17,10,43,19.40
2012,08,17,10,44,19.40
2012,08,17,10,45,19.40
2012,08,17,10,46,19.40
2012,08,17,10,47,19.40
2012,08,17,10,48,19.40
2012,08,17,10,49,19.30
2012,08,17,10,50,19.30
2012,08,17,10,51,19.30
2012,08,17,10,52,19.30
2012,08,17,10,53,19.30
2012,08,17,10,54,19.30
2012,08,17,10,55,19.40
2012,08,17,10,56,19.40
2012,08,17,10,57,19.30
2012,08,17,10,58,19.30
2012,08,17,10,59,19.30
2012,08,17,11,00,19.40
2012,08,17,11,01,19.40
2012,08,17,11,02,19.40
2012,08,17,11,03,19.40
2012,08,17,11,04,19.40
2012,08,17,11,05,19.40
2012,08,17,11,06,19.50
2012,08,17,11,07,19.50
2012,08,17,11,08,19.50
2012,08,17,11,09,19.50
2012,08,17,11,10,19.50
2012,08,17,11,11,19.50
2012,08,17,11,12,19.50
2012,08,17,11,13,19.60
2012,08,17,11,14,19.70
2012,08,17,11,15,19.80
2012,08,17,11,16,19.80
2012,08,17,11,17,19.90
2012,08,17,11,18,19.90
2012,08,17,11,19,20.00
2012,08,17,11,20,20.00
2012,08,17,11,21,20.10
2012,08,17,11,22,20.20
2012,08,17,11,23,20.20
2012,08,17,11,24,20.30
2012,08,17,11,25,20.50
2012,08,17,11,26,20.60
2012,08,17,11,27,20.80
2012,08,17,11,28,20.80
2012,08,17,11,29,20.80
2012,08,17,11,30,20.80
2012,08,17,11,31,20.90
2012,08,17,11,32,20.90
2012,08,17,11,33,20.90
2012,08,17,11,34,20.90
2012,08,17,11,35,20.90
2012,08,17,11,36,20.90
2012,08,17,11,37,20.70
2012,08,17,11,38,20.60
2012,08,17,11,39,20.50
2012,08,17,11,40,20.50
2012,08,17,11,41,20.40
2012,08,17,11,42,20.40
2012,08,17,11,43,20.40
2012,08,17,11,44,20.30
2012,08,17,11,45,20.30
2012,08,17,11,46,20.40
2012,08,17,11,47,20.40
2012,08,17,11,48,20.40
2012,08,17,11,49,20.40
2012,08,17,11,50,20.40
2012,08,17,11,51,20.40
2012,08,17,11,52,20.50
2012,08,17,11,53,20.50
2012,08,17,11,54,20.60
2012,08,17,11,55,20.70
2012,08,17,11,56,20.80
2012,08,17,11,57,20.80
2012,08,17,11,58,20.80
2012,08,17,11,59,20.80
2012,08,17,12,00,20.90
2012,08,17,12,01,20.80
2012,08,17,12,02,20.80
2012,08,17,12,03,20.80
2012,08,17,12,04,20.80
2012,08,17,12,05,20.80
2012,08,17,12,06,20.80
2012,08,17,12,07,20.90
2012,08,17,12,08,20.90
2012,08,17,12,09,21.00
2012,08,17,12,10,21.00
2012,08,17,12,11,21.00
2012,08,17,12,12,21.00
2012,08,17,12,13,21.00
2012,08,17,12,14,21.10
2012,08,17,12,15,21.00
2012,08,17,12,16,20.90
2012,08,17,12,17,20.80
2012,08,17,12,18,20.80
2012,08,17,12,19,20.80
2012,08,17,12,20,20.80
2012,08,17,12,21,20.80
2012,08,17,12,22,20.70
2012,08,17,12,23,20.70
2012,08,17,12,24,20.80
2012,08,17,12,25,20.90
2012,08,17,12,26,21.00
2012,08,17,12,27,21.00
2012,08,17,12,28,21.10
2012,08,17,12,29,21.30
2012,08,17,12,30,21.30
2012,08,17,12,31,21.40
2012,08,17,12,32,21.40
2012,08,17,12,33,21.30
2012,08,17,12,34,21.30
2012,08,17,12,35,21.20
2012,08,17,12,36,21.20
2012,08,17,12,37,21.20
2012,08,17,12,38,21.30
2012,08,17,12,39,21.30
2012,08,17,12,40,21.20
2012,08,17,12,41,21.30
2012,08,17,12,42,21.30
2012,08,17,12,43,21.30
2012,08,17,12,44,21.30
2012,08,17,12,45,21.30
2012,08,17,12,46,21.30
2012,08,17,12,47,21.30
2012,08,17,12,48,21.30
2012,08,17,12,49,21.20
2012,08,17,12,50,21.20
2012,08,17,12,51,21.20
2012,08,17,12,52,21.20
2012,08,17,12,53,21.20
2012,08,17,12,54,21.20
2012,08,17,12,55,21.30
2012,08,17,12,56,21.30
2012,08,17,12,57,21.30
2012,08,17,12,58,21.30
2012,08,17,12,59,21.30
2012,08,17,13,00,21.30
2012,08,17,13,01,21.40
2012,08,17,13,02,21.40
2012,08,17,13,03,21.40
2012,08,17,13,04,21.50
2012,08,17,13,05,21.50
2012,08,17,13,06,21.50
2012,08,17,13,07,21.50
2012,08,17,13,08,21.40
2012,08,17,13,09,21.30
2012,08,17,13,10,21.30
2012,08,17,13,11,21.30
2012,08,17,13,12,21.30
2012,08,17,13,13,21.30
2012,08,17,13,14,21.40
2012,08,17,13,15,21.50
2012,08,17,13,16,21.60
2012,08,17,13,17,21.60
2012,08,17,13,18,21.60
2012,08,17,13,19,21.50
2012,08,17,13,20,21.50
2012,08,17,13,21,21.50
2012,08,17,13,22,21.50
2012,08,17,13,23,21.50
2012,08,17,13,24,21.60
2012,08,17,13,25,21.60
2012,08,17,13,26,21.70
2012,08,17,13,27,21.80
2012,08,17,13,28,21.90
2012,08,17,13,29,21.90
2012,08,17,13,30,21.90
2012,08,17,13,31,21.80
2012,08,17,13,32,21.50
2012,08,17,13,33,21.30
2012,08,17,13,34,21.10
2012,08,17,13,35,21.00
2012,08,17,13,36,20.90
2012,08,17,13,37,20.90
2012,08,17,13,38,20.90
2012,08,17,13,39,21.00
2012,08,17,13,40,21.10
2012,08,17,13,41,21.20
2012,08,17,13,42,21.20
2012,08,17,13,43,21.20
2012,08,17,13,44,21.20
2012,08,17,13,45,21.20
2012,08,17,13,46,21.10
2012,08,17,13,47,21.10
2012,08,17,13,48,21.10
2012,08,17,13,49,21.10
2012,08,17,13,50,21.10
2012,08,17,13,51,21.00
2012,08,17,13,52,20.90
2012,08,17,13,53,20.90
2012,08,17,13,54,20.80
2012,08,17,13,55,20.80
2012,08,17,13,56,20.80
2012,08,17,13,57,20.90
2012,08,17,13,58,21.00
2012,08,17,13,59,21.10
2012,08,17,14,00,21.30
2012,08,17,14,01,21.40
2012,08,17,14,02,21.40
2012,08,17,14,03,21.40
2012,08,17,14,04,21.40
2012,08,17,14,05,21.40
2012,08,17,14,06,21.50
2012,08,17,14,07,21.50
2012,08,17,14,08,21.60
2012,08,17,14,09,21.60
2012,08,17,14,10,21.70
2012,08,17,14,11,21.80
2012,08,17,14,12,21.90
2012,08,17,14,13,21.90
2012,08,17,14,14,22.00
2012,08,17,14,15,22.10
2012,08,17,14,16,22.20
2012,08,17,14,17,22.30
2012,08,17,14,18,22.40
2012,08,17,14,19,22.60
2012,08,17,14,20,22.70
2012,08,17,14,21,22.70
2012,08,17,14,22,22.60
2012,08,17,14,23,22.60
2012,08,17,14,24,22.50
2012,08,17,14,25,22.40
2012,08,17,14,26,22.30
2012,08,17,14,27,22.30
2012,08,17,14,28,22.10
2012,08,17,14,29,21.90
2012,08,17,14,30,21.80
2012,08,17,14,31,21.70
2012,08,17,14,32,21.70
2012,08,17,14,33,21.60
2012,08,17,14,34,21.60
2012,08,17,14,35,21.60
2012,08,17,14,36,21.60
2012,08,17,14,37,21.70
2012,08,17,14,38,21.70
2012,08,17,14,39,21.80
2012,08,17,14,40,21.70
2012,08,17,14,41,21.80
2012,08,17,14,42,21.80
2012,08,17,14,43,21.70
2012,08,17,14,44,21.60
2012,08,17,14,45,21.60
2012,08,17,14,46,21.50
2012,08,17,14,47,21.40
2012,08,17,14,48,21.40
2012,08,17,14,49,21.30
2012,08,17,14,50,21.40
2012,08,17,14,51,21.40
2012,08,17,14,52,21.50
2012,08,17,14,53,21.60
2012,08,17,14,54,21.70
2012,08,17,14,55,21.80
2012,08,17,14,56,21.90
2012,08,17,14,57,22.10
2012,08,17,14,58,22.20
2012,08,17,14,59,22.30
2012,08,17,15,00,22.40
2012,08,17,15,01,22.50
2012,08,17,15,02,22.60
2012,08,17,15,03,22.70
2012,08,17,15,04,22.70
2012,08,17,15,05,22.80
2012,08,17,15,06,22.80
2012,08,17,15,07,22.80
2012,08,17,15,08,22.80
2012,08,17,15,09,22.80
2012,08,17,15,10,22.80
2012,08,17,15,11,22.80
2012,08,17,15,12,22.80
2012,08,17,15,13,22.80
2012,08,17,15,14,22.90
2012,08,17,15,15,23.00
2012,08,17,15,16,23.10
2012,08,17,15,17,23.10
2012,08,17,15,18,23.20
2012,08,17,15,19,23.20
2012,08,17,15,20,23.10
2012,08,17,15,21,23.00
2012,08,17,15,22,22.90
2012,08,17,15,23,22.90
2012,08,17,15,24,22.90
2012,08,17,15,25,22.90
2012,08,17,15,26,22.90
2012,08,17,15,27,22.90
2012,08,17,15,28,22.90
2012,08,17,15,29,22.90
2012,08,17,15,30,23.00
2012,08,17,15,31,23.00
2012,08,17,15,32,23.10
2012,08,17,15,33,23.10
2012,08,17,15,34,23.20
2012,08,17,15,35,23.30
2012,08,17,15,36,23.50
2012,08,17,15,37,23.60
2012,08,17,15,38,23.70
2012,08,17,15,39,23.80
2012,08,17,15,40,23.90
2012,08,17,15,41,23.90
2012,08,17,15,42,23.90
2012,08,17,15,43,23.80
2012,08,17,15,44,23.80
2012,08,17,15,45,23.80
2012,08,17,15,46,23.80
2012,08,17,15,47,23.90
2012,08,17,15,48,23.90
2012,08,17,15,49,24.00
2012,08,17,15,50,24.10
2012,08,17,15,51,24.20
2012,08,17,15,52,24.20
2012,08,17,15,53,24.20
2012,08,17,15,54,24.20
2012,08,17,15,55,24.30
2012,08,17,15,56,24.30
2012,08,17,15,57,24.40
2012,08,17,15,58,24.40
2012,08,17,15,59,24.40
2012,08,17,16,00,24.40
2012,08,17,16,01,24.40
2012,08,17,16,02,24.30
2012,08,17,16,03,24.30
2012,08,17,16,04,24.20
2012,08,17,16,05,24.10
2012,08,17,16,06,24.10
2012,08,17,16,07,24.10
2012,08,17,16,08,24.20
2012,08,17,16,09,24.20
2012,08,17,16,10,24.20
2012,08,17,16,11,24.30
2012,08,17,16,12,24.30
2012,08,17,16,13,24.40
2012,08,17,16,14,24.50
2012,08,17,16,15,24.60
2012,08,17,16,16,24.60
2012,08,17,16,17,24.50
2012,08,17,16,18,24.30
2012,08,17,16,19,24.00
2012,08,17,16,20,23.70
2012,08,17,16,21,23.40
2012,08,17,16,22,23.20
2012,08,17,16,23,23.20
2012,08,17,16,24,23.10
2012,08,17,16,25,23.10
2012,08,17,16,26,23.10
2012,08,17,16,27,23.20
2012,08,17,16,28,23.20
2012,08,17,16,29,23.30
2012,08,17,16,30,23.40
2012,08,17,16,31,23.40
2012,08,17,16,32,23.50
2012,08,17,16,33,23.60
2012,08,17,16,34,23.80
2012,08,17,16,35,23.90
2012,08,17,16,36,24.00
2012,08,17,16,37,24.10
2012,08,17,16,38,24.10
2012,08,17,16,39,24.10
2012,08,17,16,40,24.10
2012,08,17,16,41,24.10
2012,08,17,16,42,24.10
2012,08,17,16,43,24.10
2012,08,17,16,44,24.10
2012,08,17,16,45,24.10
2012,08,17,16,46,24.00
2012,08,17,16,47,24.00
2012,08,17,16,48,24.00
2012,08,17,16,49,23.90
2012,08,17,16,50,23.90
2012,08,17,16,51,23.90
2012,08,17,16,52,23.90
2012,08,17,16,53,23.80
2012,08,17,16,54,23.70
2012,08,17,16,55,23.60
2012,08,17,16,56,23.60
2012,08,17,16,57,23.60
2012,08,17,16,58,23.60
2012,08,17,16,59,23.60
2012,08,17,17,00,23.60
2012,08,17,17,01,23.60
2012,08,17,17,02,23.70
2012,08,17,17,03,23.80
2012,08,17,17,04,23.80
2012,08,17,17,05,23.90
2012,08,17,17,06,23.90
2012,08,17,17,07,23.90
2012,08,17,17,08,23.80
2012,08,17,17,09,23.80
2012,08,17,17,10,23.70
2012,08,17,17,11,23.70
2012,08,17,17,12,23.50
2012,08,17,17,13,23.40
2012,08,17,17,14,23.30
2012,08,17,17,15,23.30
2012,08,17,17,16,23.30
2012,08,17,17,17,23.40
2012,08,17,17,18,23.40
2012,08,17,17,19,23.40